Kosmos-2436

operational
NORAD ID: 32395 Int'l Des: 2007-065 Owner: KVR/IACG Country: RU Constellation: GLONASS
MEOCIRCULAR

关于 Kosmos-2436

正在加载描述...

实时位置

正在加载3D地球...

即将过境

高度历史

Altitude vs Time

uPlot chart will show altitude changes over time

两行轨道根数

1 32395U 07065C 26070.04182031 .00000019 00000-0 00000-0 0 9994
2 32395 64.3266 195.2947 0017392 6.1796 171.0625 2.13100260141631
Epoch: Mar 11, 2026 • Age: 102 hours

当前状态

高度 19169.5 km
速度 3.95 km/s
星下点 19.72°N, 106.02°E
发射日期 Dec 25, 2007
运行时间 18.2 years
类型 other

技术详情

分类 Payload
质量 1450.00 kg
干质量 1200.00 kg
总质量 1450.00 kg
长度 4.00 m
直径 1.50 m
跨度 7.80 m
形状 Cyl + Ant + 2 Pan
制造商 RESH
平台类型 Uragan
阶段状态 In Orbit
所有者/国家 KVR/IACG/RU

大型星座

Loading constellations...